[[{"header":{"parameterUnit":"m.s-1","parameterCategory":1,"la1":30.2991,"la2":30.254,"lo1":-89.0895,"lo2":-89.0444,"dy":0.0017,"dx":0.0017,"nx":28,"ny":28,"refTime":"2024-03-14T21:00:00:Z","depth":0,"parameterNumber":2,"parameterNumberName":"U-component_of_WINDS"},"data":[0,0,0,0,0,0,0,0,0,0,0,0,0,0,0,0,0,0,0,0,0,0,0,0,0,0,0,0,0,0,0,0,0,0,0,0,0,0,0,0,0,0,0,0,0,0,0,0,0,0,0,0,0,0,0,0,0,0,-4.0762,-4.0763,0,-4.088,-4.0882,-4.0883,-4.0884,-4.0882,-4.0881,-4.0879,-4.0997,-4.1001,-4.1006,0,0,0,0,0,0,0,0,0,0,0,0,0,-4.0534,-4.0538,-4.0762,-4.0763,-4.0765,-4.088,-4.0882,-4.0883,-4.0884,-4.0882,-4.088,-4.0878,-4.0996,-4.1001,-4.1006,0,0,0,0,0,0,0,0,0,0,0,0,0,-4.0641,-4.0539,-4.0762,-4.0779,-4.0782,-4.088,-4.0882,-4.0884,-4.0884,-4.0882,-4.088,-4.0878,-4.0994,-4.1,-4.1007,-4.1095,0,0,-4.1028,-4.1031,0,0,0,0,0,0,0,0,-4.0634,-4.0649,-4.0775,-4.0778,-4.0781,-4.0865,-4.0845,-4.0954,-4.0885,-4.0845,-4.0879,-4.0876,-4.0955,-4.0965,-4.0992,-4.11,-4.1105,-4.1029,-4.1033,-4.1036,-4.1038,0,0,0,0,0,0,0,-4.0627,-4.0644,-4.0809,-4.0777,-4.0781,-4.078,-4.0793,-4.0865,-4.0911,-4.0848,-4.0849,-4.0863,-4.0956,-4.0985,-4.0994,-4.1107,-4.1028,-4.1034,-4.1039,-4.1041,-4.1293,-4.1296,0,0,0,0,0,0,-4.0617,-4.0638,-4.0805,-4.0812,-4.0701,-4.0786,-4.08,-4.084,-4.091,-4.0919,-4.0865,-4.0863,-4.0975,-4.0986,-4.0999,-4.1105,-4.1036,-4.1042,-4.1046,-4.1291,-4.1294,-4.1297,0,0,0,0,0,0,-4.0612,-4.0632,-4.08,-4.0725,-4.0747,-4.0793,-4.0837,-4.0844,-4.0873,-4.0923,-4.0931,-4.0886,-4.0973,-4.0989,-4.1071,-4.1109,-4.1045,-4.1051,-4.1288,-4.1292,-4.1295,-4.1319,0,0,0,0,0,0,-4.0605,-4.063,-4.0664,-4.0726,-4.0751,-4.0871,-4.084,-4.0848,-4.0885,-4.0883,-4.0945,-4.0953,-4.0973,-4.1061,-4.1078,-4.1117,-4.1057,-4.1284,-4.1289,-4.1294,-4.1315,-4.1323,-4.133,0,0,0,0,0,-4.0597,-4.0665,-4.0666,-4.0686,-4.0794,-4.0873,-4.0887,-4.091,-4.0888,-4.0922,-4.0955,-4.0951,-4.1103,-4.1069,-4.1088,-4.113,-4.1282,-4.1288,-4.1294,-4.1311,-4.1321,-4.133,0,0,0,0,0,0,-4.0605,-4.0673,-4.0675,-4.0765,-4.0814,-4.0873,-4.0917,-4.092,-4.0974,-4.097,-4.0994,-4.1008,-4.109,-4.1119,-4.108,-4.1219,-4.119,-4.12,-4.1197,-4.1207,-4.1214,-4.1204,-4.1062,0,0,0,0,0,-4.0617,-4.0677,-4.0733,-4.0807,-4.0832,-4.0871,-4.0906,-4.0919,-4.097,-4.099,-4.1028,-4.1076,-4.1135,-4.1173,-4.123,-4.132,-4.1333,-4.1359,-4.1366,-4.1372,-4.138,-4.1429,-4.1441,-4.1316,-4.1316,-4.1316,0,0,-4.0643,-4.0688,-4.0724,-4.081,-4.0849,-4.0909,-4.0888,-4.0952,-4.0996,-4.0999,-4.1079,-4.1109,-4.1165,-4.1251,-4.1291,-4.1278,-4.1418,-4.138,-4.1384,-4.1388,-4.1436,-4.1448,-4.1459,-4.132,-4.1319,-4.1318,0,0,-4.072,-4.0761,-4.0827,-4.0867,-4.0927,-4.0953,-4.0969,-4.1029,-4.1049,-4.113,-4.1133,-4.1187,-4.1287,-4.1327,-4.136,-4.1454,-4.1452,-4.1472,-4.1511,-4.1559,-4.1569,-4.1578,-4.161,-4.1621,-4.148,-4.148,-4.148,0,-4.0744,-4.0835,-4.086,-4.0925,-4.0963,-4.097,-4.1037,-4.1074,-4.1149,-4.1175,-4.1159,-4.1286,-4.1324,-4.142,-4.1443,-4.147,-4.1488,-4.1464,-4.1566,-4.1575,-4.1583,-4.1614,-4.1626,-4.1482,-4.1482,-4.1482,-4.1481,0,-4.0861,-4.0924,-4.0971,-4.1044,-4.1087,-4.1153,-4.1187,-4.1228,-4.1238,-4.1265,-4.1347,-4.1394,-4.146,-4.1484,-4.1494,-4.1581,-4.1571,-4.1561,-4.1531,-4.1597,-4.1626,-4.1638,-4.1485,-4.1484,-4.1483,-4.1483,0,0,-4.0943,-4.1032,-4.1048,-4.1081,-4.1149,-4.1198,-4.1264,-4.133,-4.1364,-4.1417,-4.1471,-4.1558,-4.1549,-4.1586,-4.1601,-4.1644,-4.1714,-4.1628,-4.163,-4.1641,-4.1812,-4.1817,-4.1831,-4.1715,-4.1717,-4.1719,-4.1806,0,-4.1026,-4.1144,-4.1169,-4.1271,-4.1329,-4.1338,-4.1395,-4.1443,-4.147,-4.1523,-4.1554,-4.1614,-4.1598,-4.1621,-4.1664,-4.1696,-4.1748,-4.1691,-4.1764,-4.1767,-4.1748,-4.1847,-4.1853,-4.1933,-4.1818,-4.182,-4.1822,0,-4.1138,-4.1194,-4.1301,-4.1362,-4.1388,-4.1439,-4.1501,-4.1553,-4.1607,-4.1624,-4.1667,-4.1678,-4.1746,-4.1716,-4.1809,-4.177,-4.1802,-4.1823,-4.1826,-4.1832,-4.1796,-4.1853,-4.1959,-4.197,-4.184,-4.1839,-4.1838,0,-4.1185,-4.1288,-4.1365,-4.1394,-4.1467,-4.1503,-4.1535,-4.1587,-4.1625,-4.168,-4.1705,-4.1767,-4.18,-4.1848,-4.1875,-4.185,-4.1966,-4.1938,-4.1981,-4.198,-4.2002,-4.2,-4.2113,-4.2027,-4.2027,-4.2026,-4.2026,0,-4.1274,-4.1338,-4.1387,-4.1435,-4.1508,-4.1537,-4.1608,-4.1639,-4.1686,-4.1739,-4.1751,-4.1801,-4.1835,-4.1889,-4.1911,-4.1984,-4.2,-4.2014,-4.2019,-4.2012,-4.201,-4.2031,-4.2025,-4.203,-4.2029,-4.2028,-4.2028,0,-4.1337,-4.1373,-4.1458,-4.1521,-4.1538,-4.1589,-4.1643,-4.1689,-4.1718,-4.1785,-4.1802,-4.1847,-4.1911,-4.1944,-4.2024,-4.2038,-4.2121,-4.2123,-4.2103,-4.2104,-4.2144,-4.2139,-4.2273,-4.2291,-4.2195,-4.2196,-4.2197,0,-4.139,-4.144,-4.1509,-4.1547,-4.158,-4.1639,-4.1679,-4.171,-4.175,-4.1816,-4.1854,-4.192,-4.1973,-4.2076,-4.2115,-4.2176,-4.2178,-4.2221,-4.2187,-4.2179,-4.2177,-4.2173,-4.2177,-4.2226,-4.2227,-4.2228,-4.2228,0,-4.148,-4.1495,-4.1552,-4.1616,-4.1663,-4.1715,-4.1765,-4.1795,-4.1834,-4.1879,-4.1945,-4.1987,-4.207,-4.2134,-4.2199,-4.2231,-4.2236,-4.224,-4.2252,-4.2244,-4.2229,-4.2236,-4.2116,-4.2235,-4.2235,-4.2234,-4.2234,-4.2234,-4.1538,-4.1583,-4.1639,-4.1702,-4.1744,-4.1791,-4.1838,-4.1873,-4.193,-4.2,-4.2015,-4.2085,-4.2139,-4.2226,-4.2261,-4.2315,-4.2306,-4.2325,-4.2329,-4.2333,-4.2334,-4.2223,-4.2328,-4.2327,-4.2327,-4.2327,-4.2327,0,-4.1627,-4.1664,-4.1722,-4.1793,-4.1843,-4.1846,-4.1902,-4.1943,-4.2005,-4.2055,-4.2108,-4.2185,-4.2248,-4.2293,-4.2357,-4.2392,-4.2396,-4.2407,-4.2404,-4.2411,-4.2339,-4.2321,-4.2403,-4.2403,-4.2403,-4.2403,-4.2403,-4.2403,-4.1678,-4.1754,-4.1777,-4.1874,-4.191,-4.198,-4.2012,-4.2055,-4.2095,-4.2181,-4.2233,-4.2263,-4.2311,-4.2379,-4.2437,-4.2448,-4.247,-4.2481,-4.2493,-4.2424,-4.2416,-4.2408,-4.2391,-4.2487,-4.2487,-4.2559,-4.256,-4.2561]},{"header":{"parameterUnit":"m.s-1","parameterCategory":1,"la1":30.2991,"la2":30.254,"lo1":-89.0895,"lo2":-89.0444,"dy":0.0017,"dx":0.0017,"nx":28,"ny":28,"refTime":"2024-03-14T21:00:00:Z","depth":0,"parameterNumber":3,"parameterNumberName":"V-component_of_WINDS"},"data":[0,0,0,0,0,0,0,0,0,0,0,0,0,0,0,0,0,0,0,0,0,0,0,0,0,0,0,0,0,0,0,0,0,0,0,0,0,0,0,0,0,0,0,0,0,0,0,0,0,0,0,0,0,0,0,0,0,0,3.5637,3.5638,0,3.5681,3.5682,3.5682,3.5676,3.5675,3.5675,3.5674,3.5716,3.5717,3.5719,0,0,0,0,0,0,0,0,0,0,0,0,0,3.5545,3.5547,3.5637,3.5638,3.5638,3.5681,3.5682,3.5683,3.5676,3.5675,3.5674,3.5674,3.5715,3.5717,3.5719,0,0,0,0,0,0,0,0,0,0,0,0,0,3.5587,3.5547,3.5637,3.564,3.5641,3.5681,3.5682,3.5683,3.5676,3.5675,3.5674,3.5673,3.5714,3.5717,3.5719,3.5758,0,0,3.5728,3.5729,0,0,0,0,0,0,0,0,3.5584,3.559,3.5639,3.564,3.5641,3.5672,3.5665,3.5708,3.5677,3.5663,3.5674,3.5673,3.5702,3.5705,3.5716,3.576,3.5762,3.5728,3.573,3.5731,3.5731,0,0,0,0,0,0,0,3.5581,3.5588,3.5654,3.564,3.5641,3.5639,3.5644,3.5673,3.5688,3.5664,3.5664,3.5669,3.5702,3.5713,3.5717,3.5762,3.5728,3.573,3.5732,3.5733,3.5843,3.5844,0,0,0,0,0,0,3.5578,3.5586,3.5653,3.5656,3.561,3.5642,3.5647,3.5663,3.5687,3.569,3.567,3.5669,3.5709,3.5714,3.5718,3.5767,3.5731,3.5733,3.5735,3.5841,3.5843,3.5844,0,0,0,0,0,0,3.5576,3.5584,3.5651,3.5621,3.5629,3.5644,3.5663,3.5665,3.5676,3.5692,3.5694,3.5679,3.5709,3.5715,3.5749,3.5768,3.5734,3.5737,3.584,3.5842,3.5844,3.5864,0,0,0,0,0,0,3.5573,3.5583,3.5598,3.5621,3.5631,3.5682,3.5664,3.5666,3.5681,3.568,3.5701,3.5704,3.5708,3.5745,3.5752,3.5771,3.5739,3.5838,3.5841,3.5843,3.5861,3.5866,3.587,0,0,0,0,0,3.557,3.5601,3.5599,3.5607,3.565,3.5683,3.5688,3.5694,3.5683,3.5698,3.5709,3.5703,3.5765,3.5749,3.5756,3.5777,3.5837,3.584,3.5843,3.5859,3.5865,3.587,0,0,0,0,0,0,3.5578,3.5604,3.5602,3.5641,3.566,3.5682,3.5701,3.57,3.5721,3.5719,3.5724,3.5729,3.5764,3.5773,3.5755,3.5817,3.5799,3.5804,3.5809,3.5815,3.5819,3.5817,3.5741,0,0,0,0,0,3.5584,3.561,3.5631,3.5663,3.5673,3.5686,3.57,3.5703,3.5722,3.573,3.5743,3.5761,3.5785,3.58,3.5823,3.5862,3.5868,3.5881,3.5885,3.5888,3.5893,3.5917,3.5923,3.5854,3.5854,3.5854,0,0,3.5597,3.5615,3.563,3.5665,3.568,3.5707,3.5692,3.5719,3.5739,3.5733,3.5768,3.5778,3.5799,3.5837,3.5854,3.5846,3.5913,3.5892,3.5895,3.5897,3.5921,3.5927,3.5933,3.5856,3.5856,3.5855,0,0,3.5635,3.565,3.5681,3.5697,3.5721,3.5729,3.5737,3.5759,3.5767,3.5802,3.5799,3.5821,3.5862,3.5877,3.589,3.5937,3.5934,3.5944,3.5967,3.5991,3.5996,3.6001,3.602,3.6026,3.5948,3.5948,3.5948,0,3.5648,3.5689,3.5696,3.5725,3.5741,3.5739,3.577,3.5785,3.5814,3.5825,3.5816,3.5869,3.5882,3.5925,3.5937,3.5947,3.5956,3.5942,3.5995,3.6,3.6005,3.6023,3.603,3.5949,3.5949,3.5949,3.5949,0,3.5705,3.5733,3.5754,3.5786,3.5804,3.5833,3.5845,3.5862,3.5864,3.5874,3.5911,3.5927,3.5954,3.5964,3.5965,3.6008,3.6003,3.5994,3.5977,3.6013,3.603,3.6037,3.5951,3.5951,3.595,3.595,0,0,3.5748,3.5785,3.5793,3.5808,3.5835,3.5857,3.5887,3.5915,3.5931,3.5952,3.5978,3.6013,3.6007,3.6022,3.6024,3.6045,3.6084,3.6034,3.6035,3.6044,3.6135,3.6142,3.615,3.6081,3.6082,3.6083,3.6134,0,3.579,3.5845,3.5854,3.5902,3.5929,3.5929,3.5955,3.5975,3.5985,3.6009,3.6019,3.6045,3.6033,3.6043,3.6063,3.6075,3.6102,3.6071,3.6106,3.6107,3.6103,3.6158,3.6166,3.6213,3.614,3.6141,3.6142,0,3.5846,3.5872,3.5924,3.595,3.5962,3.5985,3.6014,3.6036,3.6059,3.6065,3.6083,3.6084,3.6116,3.6097,3.6141,3.612,3.6134,3.6142,3.6144,3.6149,3.6128,3.6166,3.6227,3.6235,3.6152,3.6151,3.615,0,3.5876,3.5922,3.596,3.5973,3.6004,3.6021,3.6034,3.6056,3.6074,3.6097,3.6109,3.6136,3.6151,3.6171,3.6179,3.6165,3.6224,3.6205,3.623,3.623,3.6243,3.6243,3.631,3.625,3.625,3.625,3.625,0,3.5923,3.5955,3.5974,3.5998,3.6034,3.6043,3.6079,3.6091,3.6111,3.6137,3.6137,3.6161,3.617,3.6195,3.6201,3.6238,3.6244,3.625,3.6252,3.6252,3.6251,3.6262,3.626,3.6252,3.6251,3.6251,3.6251,0,3.5962,3.5976,3.6018,3.6045,3.6052,3.6078,3.6101,3.6124,3.6134,3.6167,3.6175,3.6192,3.6222,3.6232,3.6268,3.6272,3.6316,3.6313,3.6309,3.631,3.6335,3.6334,3.6413,3.6425,3.6356,3.6356,3.6357,0,3.5992,3.6018,3.6048,3.6067,3.6082,3.6111,3.613,3.6139,3.6159,3.6188,3.6207,3.6238,3.6263,3.6311,3.6326,3.6354,3.6354,3.6379,3.6358,3.6357,3.6357,3.6356,3.6359,3.6384,3.6385,3.6385,3.6386,0,3.6045,3.6052,3.6079,3.6111,3.6134,3.6158,3.6181,3.6196,3.6209,3.6231,3.6264,3.6283,3.6322,3.6352,3.6381,3.6394,3.6393,3.6392,3.64,3.6401,3.6398,3.6402,3.6322,3.6391,3.639,3.639,3.639,3.6389,3.6082,3.6106,3.6132,3.6164,3.6183,3.6206,3.623,3.6245,3.6272,3.6306,3.6309,3.6344,3.6368,3.6407,3.6422,3.6449,3.6442,3.6452,3.6455,3.6458,3.6462,3.6393,3.6454,3.6454,3.6454,3.6454,3.6453,0,3.6137,3.6155,3.6184,3.6219,3.6244,3.6242,3.6268,3.6289,3.6321,3.6343,3.6369,3.6407,3.6437,3.6455,3.6486,3.6504,3.6505,3.6512,3.6512,3.6515,3.6465,3.6457,3.6512,3.6512,3.6512,3.6512,3.6512,3.6512,3.6169,3.621,3.622,3.6271,3.6287,3.6324,3.6339,3.6361,3.6379,3.6422,3.6449,3.646,3.6482,3.6514,3.6542,3.6546,3.6558,3.6567,3.6571,3.6524,3.6518,3.6513,3.6505,3.6569,3.6569,3.6619,3.662,3.662]}]]